[[{"header":{"parameterUnit":"m.s-1","parameterCategory":1,"la1":30.2991,"la2":30.254,"lo1":-89.0895,"lo2":-89.0444,"dy":0.0017,"dx":0.0017,"nx":28,"ny":28,"refTime":"2023-10-10T03:00:00:Z","depth":0,"parameterNumber":2,"parameterNumberName":"U-component_of_WINDS"},"data":[0,0,0,0,0,0,0,0,0,0,0,0,0,0,0,0,0,0,0,0,0,0,0,0,0,0,0,0,0,0,0,0,0,0,0,0,0,0,0,0,0,0,0,0,0,0,0,0,0,0,0,0,0,0,0,0,0,0,-1.1866,-1.1867,0,-1.1874,-1.1874,-1.1874,-1.1838,-1.1837,-1.1836,-1.1835,-1.1844,-1.1845,-1.1846,0,0,0,0,0,0,0,0,0,0,0,0,0,-1.1821,-1.1822,-1.1866,-1.1867,-1.1867,-1.1874,-1.1874,-1.1874,-1.1838,-1.1837,-1.1836,-1.1835,-1.1843,-1.1845,-1.1846,0,0,0,0,0,0,0,0,0,0,0,0,0,-1.1836,-1.1823,-1.1866,-1.185,-1.1848,-1.1874,-1.1874,-1.1874,-1.1839,-1.1837,-1.1835,-1.1834,-1.1843,-1.1845,-1.1847,-1.189,0,0,-1.1852,-1.1853,0,0,0,0,0,0,0,0,-1.1836,-1.1838,-1.1852,-1.1851,-1.1849,-1.1854,-1.1862,-1.188,-1.1839,-1.1842,-1.1835,-1.1833,-1.1848,-1.185,-1.1855,-1.189,-1.189,-1.1852,-1.1853,-1.1854,-1.1855,0,0,0,0,0,0,0,-1.1835,-1.1837,-1.1869,-1.1852,-1.1851,-1.1842,-1.1842,-1.1865,-1.1854,-1.1842,-1.1839,-1.1841,-1.1847,-1.1853,-1.1855,-1.189,-1.1852,-1.1854,-1.1855,-1.1856,-1.1962,-1.1963,0,0,0,0,0,0,-1.1836,-1.1837,-1.1869,-1.187,-1.1838,-1.1844,-1.1844,-1.1854,-1.1854,-1.1852,-1.1842,-1.1839,-1.1851,-1.1853,-1.1855,-1.1905,-1.1854,-1.1856,-1.1857,-1.196,-1.1962,-1.1964,0,0,0,0,0,0,-1.1835,-1.1839,-1.1869,-1.1853,-1.1856,-1.1846,-1.1857,-1.1855,-1.186,-1.1854,-1.1852,-1.185,-1.1849,-1.1852,-1.1881,-1.1905,-1.1857,-1.1858,-1.1958,-1.1961,-1.1963,-1.2007,0,0,0,0,0,0,-1.1834,-1.1839,-1.1855,-1.1853,-1.1857,-1.1895,-1.1859,-1.1856,-1.1863,-1.186,-1.1861,-1.1859,-1.1848,-1.1879,-1.1883,-1.1907,-1.186,-1.1956,-1.1959,-1.1962,-1.2003,-1.2011,-1.2017,0,0,0,0,0,-1.1832,-1.1867,-1.1856,-1.186,-1.1876,-1.1897,-1.1899,-1.1885,-1.1866,-1.1882,-1.1878,-1.1859,-1.1902,-1.1882,-1.1887,-1.1911,-1.1954,-1.1958,-1.1962,-1.2,-1.2009,-1.2017,0,0,0,0,0,0,-1.1872,-1.1866,-1.1854,-1.1889,-1.1894,-1.189,-1.191,-1.1895,-1.1906,-1.1902,-1.1885,-1.1885,-1.1917,-1.1917,-1.1895,-1.1953,-1.1925,-1.193,-1.1952,-1.1961,-1.1967,-1.1967,-1.1861,0,0,0,0,0,-1.1884,-1.1901,-1.1895,-1.1927,-1.193,-1.192,-1.1928,-1.1917,-1.1921,-1.1923,-1.1921,-1.1926,-1.1941,-1.195,-1.1963,-1.2003,-1.2003,-1.2022,-1.2029,-1.2035,-1.2039,-1.2061,-1.2069,-1.1977,-1.1977,-1.1977,0,0,-1.1911,-1.191,-1.1922,-1.1935,-1.1937,-1.1955,-1.1922,-1.1942,-1.1955,-1.1926,-1.1954,-1.1952,-1.1957,-1.1991,-1.2006,-1.1992,-1.2065,-1.204,-1.2044,-1.2046,-1.2066,-1.2074,-1.2082,-1.1979,-1.1979,-1.1978,0,0,-1.1969,-1.1969,-1.1996,-1.1999,-1.2002,-1.1996,-1.2002,-1.2001,-1.1999,-1.2026,-1.2006,-1.2021,-1.2046,-1.205,-1.2056,-1.2115,-1.2099,-1.212,-1.2156,-1.2177,-1.2184,-1.2191,-1.2212,-1.222,-1.2125,-1.2125,-1.2125,0,-1.2001,-1.2027,-1.2012,-1.2033,-1.204,-1.2015,-1.2042,-1.2045,-1.2053,-1.2059,-1.2042,-1.2074,-1.2075,-1.211,-1.2125,-1.213,-1.2137,-1.212,-1.2184,-1.2191,-1.2196,-1.2217,-1.2225,-1.2127,-1.2127,-1.2127,-1.2126,0,-1.2067,-1.2085,-1.2106,-1.2115,-1.2124,-1.2148,-1.2137,-1.2148,-1.2136,-1.2131,-1.216,-1.216,-1.2173,-1.218,-1.217,-1.2214,-1.2205,-1.2187,-1.2158,-1.2208,-1.2227,-1.2235,-1.2131,-1.213,-1.2129,-1.2129,0,0,-1.215,-1.215,-1.2158,-1.2161,-1.2163,-1.2177,-1.2201,-1.2213,-1.2223,-1.2229,-1.2249,-1.2271,-1.2254,-1.226,-1.2249,-1.2268,-1.2315,-1.2247,-1.2247,-1.226,-1.2365,-1.238,-1.2389,-1.2304,-1.2306,-1.2307,-1.2365,0,-1.2207,-1.2247,-1.2234,-1.2274,-1.2291,-1.2267,-1.2287,-1.2291,-1.2287,-1.2301,-1.2297,-1.2313,-1.2289,-1.2293,-1.231,-1.2306,-1.2336,-1.2302,-1.2323,-1.2324,-1.2323,-1.2399,-1.2414,-1.2469,-1.2373,-1.2374,-1.2375,0,-1.2279,-1.2288,-1.233,-1.2329,-1.2336,-1.2354,-1.2365,-1.2378,-1.2382,-1.2378,-1.2385,-1.2371,-1.2394,-1.2365,-1.2397,-1.2374,-1.2381,-1.2381,-1.2383,-1.2385,-1.2353,-1.2403,-1.2486,-1.2494,-1.2386,-1.2385,-1.2384,0,-1.2336,-1.2358,-1.2386,-1.239,-1.239,-1.2404,-1.2405,-1.2407,-1.2415,-1.2424,-1.243,-1.2442,-1.2448,-1.2458,-1.2447,-1.2427,-1.2481,-1.2451,-1.2479,-1.2479,-1.2492,-1.2491,-1.2578,-1.2496,-1.2496,-1.2496,-1.2496,0,-1.2401,-1.2428,-1.2412,-1.2429,-1.2459,-1.2444,-1.2473,-1.2471,-1.2474,-1.249,-1.2471,-1.2487,-1.2472,-1.2487,-1.2479,-1.2507,-1.251,-1.2507,-1.2505,-1.251,-1.251,-1.2515,-1.2511,-1.2498,-1.2498,-1.2497,-1.2497,0,-1.247,-1.246,-1.249,-1.2487,-1.2487,-1.2509,-1.2507,-1.2523,-1.2518,-1.2539,-1.2544,-1.2535,-1.2552,-1.2542,-1.2559,-1.2554,-1.2591,-1.2583,-1.2589,-1.2587,-1.2616,-1.2613,-1.2709,-1.272,-1.2631,-1.2632,-1.2633,0,-1.2512,-1.2532,-1.2532,-1.2542,-1.2544,-1.256,-1.2568,-1.2554,-1.2564,-1.257,-1.2585,-1.26,-1.2611,-1.2639,-1.2635,-1.2648,-1.2641,-1.2673,-1.2643,-1.2647,-1.2642,-1.2641,-1.2643,-1.2679,-1.268,-1.2681,-1.2682,0,-1.2589,-1.2583,-1.2596,-1.2607,-1.2618,-1.2626,-1.2632,-1.2642,-1.2627,-1.2639,-1.2656,-1.2665,-1.2682,-1.2697,-1.2708,-1.2709,-1.2694,-1.2692,-1.2699,-1.2704,-1.2707,-1.2706,-1.2607,-1.269,-1.2689,-1.2688,-1.2688,-1.2688,-1.2647,-1.2663,-1.2666,-1.2681,-1.2684,-1.269,-1.2706,-1.2702,-1.2715,-1.2728,-1.2719,-1.2739,-1.2743,-1.2756,-1.2759,-1.2775,-1.2762,-1.2772,-1.2775,-1.2778,-1.2782,-1.2704,-1.2777,-1.2777,-1.2776,-1.2776,-1.2776,0,-1.2723,-1.2723,-1.2737,-1.2746,-1.2758,-1.2742,-1.2748,-1.2759,-1.2777,-1.2781,-1.2793,-1.2812,-1.2827,-1.2824,-1.2837,-1.285,-1.2843,-1.2854,-1.2853,-1.2854,-1.2792,-1.2785,-1.286,-1.286,-1.286,-1.286,-1.286,-1.2859,-1.2764,-1.2792,-1.2786,-1.2815,-1.2815,-1.2834,-1.284,-1.2846,-1.2849,-1.2872,-1.2884,-1.2881,-1.2883,-1.2896,-1.2909,-1.2908,-1.2914,-1.2928,-1.2924,-1.2867,-1.2858,-1.285,-1.2843,-1.2929,-1.2929,-1.2984,-1.2985,-1.2985]},{"header":{"parameterUnit":"m.s-1","parameterCategory":1,"la1":30.2991,"la2":30.254,"lo1":-89.0895,"lo2":-89.0444,"dy":0.0017,"dx":0.0017,"nx":28,"ny":28,"refTime":"2023-10-10T03:00:00:Z","depth":0,"parameterNumber":3,"parameterNumberName":"V-component_of_WINDS"},"data":[0,0,0,0,0,0,0,0,0,0,0,0,0,0,0,0,0,0,0,0,0,0,0,0,0,0,0,0,0,0,0,0,0,0,0,0,0,0,0,0,0,0,0,0,0,0,0,0,0,0,0,0,0,0,0,0,0,0,2.5264,2.5264,0,2.5302,2.5302,2.5303,2.528,2.5279,2.5277,2.5276,2.5312,2.5314,2.5316,0,0,0,0,0,0,0,0,0,0,0,0,0,2.5166,2.5168,2.5263,2.5264,2.5264,2.5302,2.5302,2.5303,2.528,2.5278,2.5277,2.5276,2.5312,2.5314,2.5316,0,0,0,0,0,0,0,0,0,0,0,0,0,2.5207,2.5169,2.5263,2.5258,2.5257,2.5302,2.5302,2.5303,2.528,2.5278,2.5277,2.5275,2.5311,2.5314,2.5317,2.5368,0,0,2.5326,2.5327,0,0,0,0,0,0,0,0,2.5204,2.521,2.5258,2.5258,2.5258,2.5284,2.5281,2.5325,2.528,2.5271,2.5276,2.5274,2.5304,2.5308,2.5318,2.537,2.5371,2.5326,2.5328,2.5329,2.533,0,0,0,0,0,0,0,2.5202,2.5209,2.5279,2.5259,2.5259,2.5252,2.5256,2.5289,2.5296,2.5272,2.527,2.5275,2.5304,2.5315,2.5319,2.5372,2.5326,2.5329,2.533,2.5332,2.5465,2.5467,0,0,0,0,0,0,2.52,2.5206,2.5277,2.528,2.5227,2.5255,2.5259,2.5277,2.5296,2.5297,2.5277,2.5274,2.5311,2.5315,2.532,2.538,2.5329,2.5332,2.5334,2.5463,2.5465,2.5467,0,0,0,0,0,0,2.5198,2.5206,2.5276,2.5243,2.5251,2.5258,2.5279,2.5279,2.5291,2.53,2.53,2.5288,2.531,2.5316,2.5356,2.5381,2.5333,2.5336,2.5461,2.5464,2.5466,2.55,0,0,0,0,0,0,2.5195,2.5206,2.5226,2.5243,2.5253,2.5312,2.5281,2.5281,2.5296,2.5293,2.531,2.5311,2.5309,2.5352,2.5359,2.5384,2.5338,2.5459,2.5462,2.5465,2.5497,2.5504,2.551,0,0,0,0,0,2.5192,2.5234,2.5228,2.5236,2.5279,2.5314,2.5319,2.5317,2.5299,2.5318,2.5324,2.5311,2.5377,2.5356,2.5364,2.539,2.5457,2.5461,2.5465,2.5494,2.5503,2.551,0,0,0,0,0,0,2.5219,2.5236,2.5229,2.5279,2.5295,2.531,2.5335,2.5326,2.5347,2.5343,2.5339,2.5343,2.5384,2.5391,2.5368,2.544,2.5414,2.542,2.5433,2.5441,2.5448,2.5444,2.5341,0,0,0,0,0,2.5231,2.5259,2.5272,2.5315,2.5323,2.5328,2.5343,2.534,2.5356,2.5363,2.5371,2.5387,2.5411,2.5427,2.545,2.5498,2.5501,2.552,2.5527,2.5532,2.5536,2.5561,2.5569,2.548,2.548,2.548,0,0,2.5256,2.5268,2.5286,2.532,2.5333,2.536,2.5334,2.5365,2.5385,2.5367,2.5405,2.5412,2.5429,2.5473,2.5493,2.548,2.5561,2.5537,2.5541,2.5542,2.5566,2.5574,2.5581,2.5483,2.5482,2.5482,0,0,2.5314,2.5328,2.5364,2.5377,2.5396,2.5398,2.5407,2.5423,2.5427,2.5466,2.5453,2.5476,2.5518,2.553,2.5542,2.5604,2.5592,2.5612,2.5644,2.5668,2.5675,2.5681,2.5702,2.5709,2.5617,2.5617,2.5617,0,2.5342,2.5384,2.5383,2.5415,2.5429,2.5415,2.545,2.5463,2.5488,2.5498,2.5484,2.5535,2.5546,2.5592,2.5607,2.5618,2.5626,2.5609,2.5675,2.5681,2.5686,2.5706,2.5714,2.5619,2.5619,2.5618,2.5618,0,2.5416,2.5446,2.5473,2.5498,2.5516,2.5549,2.5551,2.5569,2.5564,2.5567,2.5606,2.5618,2.5642,2.5653,2.5649,2.5698,2.569,2.5675,2.5649,2.5697,2.5715,2.5722,2.5622,2.5621,2.5621,2.562,0,0,2.5493,2.5517,2.5527,2.5537,2.5557,2.5579,2.5611,2.5636,2.565,2.5668,2.5693,2.5729,2.5716,2.5729,2.5726,2.5747,2.5793,2.573,2.573,2.574,2.5846,2.5856,2.5865,2.5786,2.5788,2.5789,2.5844,0,2.5551,2.5608,2.5607,2.5659,2.5685,2.5673,2.57,2.5714,2.5719,2.574,2.5744,2.5769,2.5751,2.5758,2.5779,2.5783,2.5814,2.578,2.5808,2.5809,2.5803,2.5874,2.5885,2.5937,2.5852,2.5853,2.5854,0,2.5627,2.5648,2.5703,2.5718,2.5729,2.5754,2.5775,2.5797,2.5812,2.5814,2.5828,2.5821,2.5852,2.5826,2.5867,2.5844,2.5855,2.5859,2.5861,2.5862,2.5833,2.5876,2.5953,2.596,2.5865,2.5864,2.5863,0,2.5675,2.5717,2.5755,2.5765,2.5783,2.5801,2.5809,2.5823,2.5838,2.5856,2.5865,2.5887,2.5899,2.5915,2.5914,2.5895,2.5955,2.5929,2.5955,2.5955,2.5967,2.5966,2.6046,2.5978,2.5977,2.5977,2.5977,0,2.574,2.5773,2.5776,2.5799,2.5836,2.5834,2.587,2.5876,2.5889,2.5912,2.5902,2.5923,2.5921,2.5942,2.5942,2.5975,2.598,2.5981,2.598,2.5981,2.5981,2.5987,2.5983,2.5979,2.5979,2.5978,2.5978,0,2.5799,2.5803,2.5843,2.5857,2.5862,2.5888,2.5899,2.592,2.5924,2.5953,2.5959,2.5964,2.5989,2.5989,2.6017,2.6016,2.6056,2.6052,2.6051,2.605,2.6075,2.6072,2.616,2.6171,2.6098,2.6098,2.6099,0,2.5839,2.5865,2.5882,2.5897,2.5907,2.5931,2.5946,2.5945,2.596,2.5979,2.5997,2.6021,2.6039,2.6079,2.6084,2.6105,2.61,2.6129,2.6103,2.6102,2.6098,2.6096,2.6097,2.6134,2.6135,2.6135,2.6136,0,2.591,2.591,2.5932,2.5955,2.5972,2.599,2.6006,2.6018,2.6019,2.6036,2.6061,2.6076,2.6104,2.6127,2.6147,2.6154,2.6145,2.6145,2.6151,2.6152,2.6149,2.6149,2.6063,2.6142,2.6142,2.6141,2.6141,2.614,2.596,2.5981,2.5996,2.602,2.6033,2.6048,2.6068,2.6074,2.6095,2.6118,2.6116,2.6143,2.6156,2.6183,2.6191,2.6212,2.6201,2.6212,2.6214,2.6216,2.6218,2.6148,2.6216,2.6216,2.6215,2.6215,2.6215,0,2.6028,2.6037,2.6059,2.6082,2.6101,2.6092,2.6109,2.6124,2.6149,2.6163,2.6181,2.6209,2.6231,2.6238,2.6259,2.6274,2.627,2.6279,2.6277,2.6278,2.6227,2.6218,2.6282,2.6282,2.6282,2.6282,2.6282,2.6282,2.6065,2.6101,2.6103,2.6143,2.6151,2.6179,2.6189,2.6202,2.6213,2.6245,2.6263,2.6268,2.6278,2.63,2.6319,2.632,2.6327,2.6338,2.6338,2.6289,2.6282,2.6276,2.6267,2.634,2.634,2.6387,2.6387,2.6388]}]]